Year,Month,Day,Hour,Minute,Value (Times are PST for temperature in C)
2014,01,18,00,00,-0.90
2014,01,18,00,01,-0.90
2014,01,18,00,02,-0.90
2014,01,18,00,03,-0.90
2014,01,18,00,04,-0.90
2014,01,18,00,05,-0.90
2014,01,18,00,06,-1.00
2014,01,18,00,07,-1.00
2014,01,18,00,08,-1.00
2014,01,18,00,09,-1.00
2014,01,18,00,10,-1.00
2014,01,18,00,11,-1.00
2014,01,18,00,12,-1.00
2014,01,18,00,13,-1.00
2014,01,18,00,14,-1.10
2014,01,18,00,15,-1.10
2014,01,18,00,16,-1.10
2014,01,18,00,17,-1.10
2014,01,18,00,18,-1.10
2014,01,18,00,19,-1.10
2014,01,18,00,20,-1.10
2014,01,18,00,21,-1.10
2014,01,18,00,22,-1.10
2014,01,18,00,23,-1.10
2014,01,18,00,24,-1.20
2014,01,18,00,25,-1.20
2014,01,18,00,26,-1.20
2014,01,18,00,27,-1.20
2014,01,18,00,28,-1.20
2014,01,18,00,29,-1.20
2014,01,18,00,30,-1.20
2014,01,18,00,31,-1.20
2014,01,18,00,32,-1.20
2014,01,18,00,33,-1.30
2014,01,18,00,34,-1.30
2014,01,18,00,35,-1.30
2014,01,18,00,36,-1.30
2014,01,18,00,37,-1.30
2014,01,18,00,38,-1.30
2014,01,18,00,39,-1.30
2014,01,18,00,40,-1.20
2014,01,18,00,41,-1.20
2014,01,18,00,42,-1.20
2014,01,18,00,43,-1.20
2014,01,18,00,44,-1.20
2014,01,18,00,45,-1.20
2014,01,18,00,46,-1.20
2014,01,18,00,47,-1.20
2014,01,18,00,48,-1.20
2014,01,18,00,49,-1.20
2014,01,18,00,50,-1.20
2014,01,18,00,51,-1.20
2014,01,18,00,52,-1.20
2014,01,18,00,53,-1.20
2014,01,18,00,54,-1.20
2014,01,18,00,55,-1.20
2014,01,18,00,56,-1.20
2014,01,18,00,57,-1.20
2014,01,18,00,58,-1.20
2014,01,18,00,59,-1.20
2014,01,18,01,00,-1.20
2014,01,18,01,01,-1.20
2014,01,18,01,02,-1.20
2014,01,18,01,03,-1.20
2014,01,18,01,04,-1.20
2014,01,18,01,05,-1.20
2014,01,18,01,06,-1.20
2014,01,18,01,07,-1.20
2014,01,18,01,08,-1.20
2014,01,18,01,09,-1.20
2014,01,18,01,10,-1.20
2014,01,18,01,11,-1.20
2014,01,18,01,12,-1.10
2014,01,18,01,13,-1.10
2014,01,18,01,14,-1.10
2014,01,18,01,15,-1.10
2014,01,18,01,16,-1.10
2014,01,18,01,17,-1.10
2014,01,18,01,18,-1.10
2014,01,18,01,19,-1.10
2014,01,18,01,20,-1.00
2014,01,18,01,21,-1.00
2014,01,18,01,22,-1.00
2014,01,18,01,23,-0.90
2014,01,18,01,24,-0.90
2014,01,18,01,25,-0.90
2014,01,18,01,26,-0.90
2014,01,18,01,27,-0.90
2014,01,18,01,28,-0.90
2014,01,18,01,29,-0.90
2014,01,18,01,30,-0.90
2014,01,18,01,31,-0.90
2014,01,18,01,32,-0.90
2014,01,18,01,33,-0.90
2014,01,18,01,34,-0.90
2014,01,18,01,35,-0.90
2014,01,18,01,36,-0.90
2014,01,18,01,37,-0.90
2014,01,18,01,38,-0.90
2014,01,18,01,39,-0.90
2014,01,18,01,40,-0.90
2014,01,18,01,41,-0.90
2014,01,18,01,42,-0.90
2014,01,18,01,43,-0.90
2014,01,18,01,44,-0.90
2014,01,18,01,45,-0.90
2014,01,18,01,46,-0.90
2014,01,18,01,47,-0.90
2014,01,18,01,48,-0.90
2014,01,18,01,49,-0.90
2014,01,18,01,50,-0.90
2014,01,18,01,51,-0.90
2014,01,18,01,52,-0.90
2014,01,18,01,53,-0.90
2014,01,18,01,54,-0.90
2014,01,18,01,55,-0.90
2014,01,18,01,56,-0.90
2014,01,18,01,57,-0.90
2014,01,18,01,58,-0.90
2014,01,18,01,59,-0.90
2014,01,18,02,00,-0.90
2014,01,18,02,01,-0.90
2014,01,18,02,02,-0.90
2014,01,18,02,03,-0.90
2014,01,18,02,04,-0.90
2014,01,18,02,05,-0.90
2014,01,18,02,06,-0.90
2014,01,18,02,07,-0.90
2014,01,18,02,08,-0.90
2014,01,18,02,09,-0.90
2014,01,18,02,10,-0.90
2014,01,18,02,11,-0.90
2014,01,18,02,12,-0.90
2014,01,18,02,13,-0.80
2014,01,18,02,14,-0.80
2014,01,18,02,15,-0.90
2014,01,18,02,16,-0.80
2014,01,18,02,17,-0.90
2014,01,18,02,18,-0.80
2014,01,18,02,19,-0.80
2014,01,18,02,20,-0.80
2014,01,18,02,21,-0.80
2014,01,18,02,22,-0.80
2014,01,18,02,23,-0.80
2014,01,18,02,24,-0.80
2014,01,18,02,25,-0.80
2014,01,18,02,26,-0.80
2014,01,18,02,27,-0.80
2014,01,18,02,28,-0.80
2014,01,18,02,29,-0.80
2014,01,18,02,30,-0.80
2014,01,18,02,31,-0.80
2014,01,18,02,32,-0.80
2014,01,18,02,33,-0.80
2014,01,18,02,34,-0.80
2014,01,18,02,35,-0.80
2014,01,18,02,36,-0.80
2014,01,18,02,37,-0.80
2014,01,18,02,38,-0.80
2014,01,18,02,39,-0.80
2014,01,18,02,40,-0.80
2014,01,18,02,41,-0.80
2014,01,18,02,42,-0.80
2014,01,18,02,43,-0.80
2014,01,18,02,44,-0.80
2014,01,18,02,45,-0.80
2014,01,18,02,46,-0.80
2014,01,18,02,47,-0.80
2014,01,18,02,48,-0.80
2014,01,18,02,49,-0.80
2014,01,18,02,50,-0.80
2014,01,18,02,51,-0.80
2014,01,18,02,52,-0.80
2014,01,18,02,53,-0.80
2014,01,18,02,54,-0.80
2014,01,18,02,55,-0.80
2014,01,18,02,56,-0.80
2014,01,18,02,57,-0.80
2014,01,18,02,58,-0.80
2014,01,18,02,59,-0.80
2014,01,18,03,00,-0.80
2014,01,18,03,01,-0.80
2014,01,18,03,02,-0.90
2014,01,18,03,03,-0.90
2014,01,18,03,04,-0.90
2014,01,18,03,05,-0.90
2014,01,18,03,06,-0.90
2014,01,18,03,07,-0.90
2014,01,18,03,08,-0.90
2014,01,18,03,09,-0.90
2014,01,18,03,10,-0.90
2014,01,18,03,11,-0.90
2014,01,18,03,12,-0.90
2014,01,18,03,13,-0.90
2014,01,18,03,14,-0.90
2014,01,18,03,15,-0.90
2014,01,18,03,16,-0.90
2014,01,18,03,17,-0.90
2014,01,18,03,18,-0.90
2014,01,18,03,19,-0.90
2014,01,18,03,20,-0.90
2014,01,18,03,21,-0.90
2014,01,18,03,22,-0.90
2014,01,18,03,23,-0.90
2014,01,18,03,24,-0.90
2014,01,18,03,25,-0.90
2014,01,18,03,26,-0.90
2014,01,18,03,27,-0.90
2014,01,18,03,28,-0.90
2014,01,18,03,29,-0.90
2014,01,18,03,30,-1.00
2014,01,18,03,31,-1.00
2014,01,18,03,32,-1.00
2014,01,18,03,33,-1.00
2014,01,18,03,34,-1.00
2014,01,18,03,35,-1.00
2014,01,18,03,36,-1.00
2014,01,18,03,37,-1.00
2014,01,18,03,38,-1.00
2014,01,18,03,39,-1.00
2014,01,18,03,40,-1.10
2014,01,18,03,41,-1.10
2014,01,18,03,42,-1.10
2014,01,18,03,43,-1.10
2014,01,18,03,44,-1.10
2014,01,18,03,45,-1.10
2014,01,18,03,46,-1.10
2014,01,18,03,47,-1.10
2014,01,18,03,48,-1.10
2014,01,18,03,49,-1.10
2014,01,18,03,50,-1.10
2014,01,18,03,51,-1.10
2014,01,18,03,52,-1.10
2014,01,18,03,53,-1.10
2014,01,18,03,54,-1.10
2014,01,18,03,55,-1.10
2014,01,18,03,56,-1.10
2014,01,18,03,57,-1.10
2014,01,18,03,58,-1.10
2014,01,18,03,59,-1.10
2014,01,18,04,00,-1.10
2014,01,18,04,01,-1.10
2014,01,18,04,02,-1.10
2014,01,18,04,03,-1.10
2014,01,18,04,04,-1.10
2014,01,18,04,05,-1.10
2014,01,18,04,06,-1.10
2014,01,18,04,07,-1.10
2014,01,18,04,08,-1.10
2014,01,18,04,09,-1.10
2014,01,18,04,10,-1.10
2014,01,18,04,11,-1.20
2014,01,18,04,12,-1.20
2014,01,18,04,13,-1.20
2014,01,18,04,14,-1.20
2014,01,18,04,15,-1.20
2014,01,18,04,16,-1.20
2014,01,18,04,17,-1.20
2014,01,18,04,18,-1.20
2014,01,18,04,19,-1.20
2014,01,18,04,20,-1.20
2014,01,18,04,21,-1.20
2014,01,18,04,22,-1.20
2014,01,18,04,23,-1.20
2014,01,18,04,24,-1.20
2014,01,18,04,25,-1.20
2014,01,18,04,26,-1.20
2014,01,18,04,27,-1.20
2014,01,18,04,28,-1.20
2014,01,18,04,29,-1.20
2014,01,18,04,30,-1.20
2014,01,18,04,31,-1.20
2014,01,18,04,32,-1.20
2014,01,18,04,33,-1.20
2014,01,18,04,34,-1.20
2014,01,18,04,35,-1.20
2014,01,18,04,36,-1.20
2014,01,18,04,37,-1.20
2014,01,18,04,38,-1.20
2014,01,18,04,39,-1.20
2014,01,18,04,40,-1.20
2014,01,18,04,41,-1.20
2014,01,18,04,42,-1.20
2014,01,18,04,43,-1.20
2014,01,18,04,44,-1.20
2014,01,18,04,45,-1.20
2014,01,18,04,46,-1.20
2014,01,18,04,47,-1.20
2014,01,18,04,48,-1.20
2014,01,18,04,49,-1.20
2014,01,18,04,50,-1.20
2014,01,18,04,51,-1.20
2014,01,18,04,52,-1.20
2014,01,18,04,53,-1.20
2014,01,18,04,54,-1.20
2014,01,18,04,55,-1.20
2014,01,18,04,56,-1.20
2014,01,18,04,57,-1.20
2014,01,18,04,58,-1.20
2014,01,18,04,59,-1.20
2014,01,18,05,00,-1.20
2014,01,18,05,01,-1.20
2014,01,18,05,02,-1.20
2014,01,18,05,03,-1.20
2014,01,18,05,04,-1.20
2014,01,18,05,05,-1.20
2014,01,18,05,06,-1.20
2014,01,18,05,07,-1.20
2014,01,18,05,08,-1.20
2014,01,18,05,09,-1.20
2014,01,18,05,10,-1.20
2014,01,18,05,11,-1.20
2014,01,18,05,12,-1.20
2014,01,18,05,13,-1.20
2014,01,18,05,14,-1.20
2014,01,18,05,15,-1.20
2014,01,18,05,16,-1.10
2014,01,18,05,17,-1.10
2014,01,18,05,18,-1.10
2014,01,18,05,19,-1.10
2014,01,18,05,20,-1.10
2014,01,18,05,21,-1.10
2014,01,18,05,22,-1.10
2014,01,18,05,23,-1.10
2014,01,18,05,24,-1.10
2014,01,18,05,25,-1.10
2014,01,18,05,26,-1.10
2014,01,18,05,27,-1.00
2014,01,18,05,28,-1.00
2014,01,18,05,29,-1.00
2014,01,18,05,30,-1.00
2014,01,18,05,31,-1.00
2014,01,18,05,32,-1.00
2014,01,18,05,33,-1.00
2014,01,18,05,34,-1.00
2014,01,18,05,35,-0.90
2014,01,18,05,36,-0.90
2014,01,18,05,37,-0.90
2014,01,18,05,38,-0.90
2014,01,18,05,39,-0.90
2014,01,18,05,40,-0.90
2014,01,18,05,41,-0.90
2014,01,18,05,42,-0.90
2014,01,18,05,43,-0.90
2014,01,18,05,44,-0.90
2014,01,18,05,45,-0.90
2014,01,18,05,46,-0.90
2014,01,18,05,47,-0.90
2014,01,18,05,48,-0.90
2014,01,18,05,49,-0.90
2014,01,18,05,50,-0.90
2014,01,18,05,51,-0.90
2014,01,18,05,52,-0.90
2014,01,18,05,53,-0.90
2014,01,18,05,54,-0.90
2014,01,18,05,55,-0.90
2014,01,18,05,56,-0.90
2014,01,18,05,57,-0.90
2014,01,18,05,58,-0.90
2014,01,18,05,59,-1.00
2014,01,18,06,00,-1.00
2014,01,18,06,01,-1.00
2014,01,18,06,02,-1.00
2014,01,18,06,03,-1.00
2014,01,18,06,04,-1.00
2014,01,18,06,05,-1.00
2014,01,18,06,06,-1.00
2014,01,18,06,07,-1.00
2014,01,18,06,08,-1.00
2014,01,18,06,09,-1.00
2014,01,18,06,10,-1.00
2014,01,18,06,11,-1.00
2014,01,18,09,00,2.00
2014,01,18,09,01,2.00
2014,01,18,09,02,2.00
2014,01,18,09,03,2.00
2014,01,18,09,04,2.00
2014,01,18,09,05,2.00
2014,01,18,09,06,2.00
2014,01,18,09,07,2.10
2014,01,18,09,08,2.10
2014,01,18,09,09,2.20
2014,01,18,09,10,2.20
2014,01,18,09,11,2.30
2014,01,18,09,12,2.30
2014,01,18,09,13,2.30
2014,01,18,09,14,2.40
2014,01,18,09,15,2.40
2014,01,18,09,16,2.50
2014,01,18,09,17,2.50
2014,01,18,09,18,2.60
2014,01,18,09,19,2.70
2014,01,18,09,20,2.70
2014,01,18,09,21,2.80
2014,01,18,09,22,2.70
2014,01,18,09,23,2.70
2014,01,18,09,24,2.70
2014,01,18,09,25,2.70
2014,01,18,09,26,2.70
2014,01,18,09,27,2.70
2014,01,18,09,28,2.70
2014,01,18,09,29,2.80
2014,01,18,09,30,2.80
2014,01,18,09,31,2.80
2014,01,18,09,32,2.90
2014,01,18,09,33,2.90
2014,01,18,09,34,3.00
2014,01,18,09,35,3.00
2014,01,18,09,36,3.00
2014,01,18,09,37,3.00
2014,01,18,09,38,3.00
2014,01,18,09,39,3.00
2014,01,18,09,40,3.00
2014,01,18,09,41,3.00
2014,01,18,09,42,2.90
2014,01,18,09,43,2.90
2014,01,18,09,44,2.90
2014,01,18,09,45,2.90
2014,01,18,09,46,2.90
2014,01,18,09,47,2.90
2014,01,18,09,48,2.90
2014,01,18,09,49,2.90
2014,01,18,09,50,2.90
2014,01,18,09,51,2.90
2014,01,18,09,52,3.00
2014,01,18,09,53,3.00
2014,01,18,09,54,3.00
2014,01,18,09,55,3.00
2014,01,18,09,56,3.00
2014,01,18,09,57,3.00
2014,01,18,09,58,3.00
2014,01,18,09,59,3.10
2014,01,18,10,00,3.10
2014,01,18,10,01,3.10
2014,01,18,10,02,3.20
2014,01,18,10,03,3.30
2014,01,18,10,04,3.30
2014,01,18,10,05,3.40
2014,01,18,10,06,3.50
2014,01,18,10,07,3.50
2014,01,18,10,08,3.60
2014,01,18,10,09,3.60
2014,01,18,10,10,3.50
2014,01,18,10,11,3.50
2014,01,18,10,12,3.50
2014,01,18,10,13,3.60
2014,01,18,10,14,3.60
2014,01,18,10,15,3.70
2014,01,18,10,16,3.70
2014,01,18,10,17,3.70
2014,01,18,10,18,3.80
2014,01,18,10,19,3.80
2014,01,18,10,20,3.80
2014,01,18,10,21,3.90
2014,01,18,10,22,3.90
2014,01,18,10,23,4.00
2014,01,18,10,24,4.10
2014,01,18,10,25,4.10
2014,01,18,10,26,4.20
2014,01,18,10,27,4.20
2014,01,18,10,28,4.30
2014,01,18,10,29,4.40
2014,01,18,10,30,4.50
2014,01,18,10,31,4.60
2014,01,18,10,32,4.80
2014,01,18,10,33,4.90
2014,01,18,10,34,5.10
2014,01,18,10,35,5.20
2014,01,18,10,36,5.30
2014,01,18,10,37,5.40
2014,01,18,10,38,5.50
2014,01,18,10,39,5.70
2014,01,18,10,40,5.70
2014,01,18,10,41,5.80
2014,01,18,10,42,5.90
2014,01,18,10,43,5.90
2014,01,18,10,44,6.00
2014,01,18,10,45,6.00
2014,01,18,10,46,6.10
2014,01,18,10,47,6.10
2014,01,18,10,48,6.10
2014,01,18,10,49,6.10
2014,01,18,10,50,6.10
2014,01,18,10,51,6.10
2014,01,18,10,52,6.00
2014,01,18,10,53,5.90
2014,01,18,10,54,5.90
2014,01,18,10,55,5.90
2014,01,18,10,56,5.80
2014,01,18,10,57,5.80
2014,01,18,10,58,5.80
2014,01,18,10,59,5.80
2014,01,18,11,00,5.80
2014,01,18,11,01,5.70
2014,01,18,11,02,5.70
2014,01,18,11,03,5.70
2014,01,18,11,04,5.70
2014,01,18,11,05,5.70
2014,01,18,11,06,5.70
2014,01,18,11,07,5.80
2014,01,18,11,08,5.80
2014,01,18,11,09,5.80
2014,01,18,11,10,5.90
2014,01,18,11,11,5.90
2014,01,18,11,12,6.00
2014,01,18,11,13,6.10
2014,01,18,11,14,6.20
2014,01,18,11,15,6.20
2014,01,18,11,16,6.30
2014,01,18,11,17,6.30
2014,01,18,11,18,6.40
2014,01,18,11,19,6.40
2014,01,18,11,20,6.50
2014,01,18,11,21,6.50
2014,01,18,11,22,6.50
2014,01,18,11,23,6.60
2014,01,18,11,24,6.60
2014,01,18,11,25,6.60
2014,01,18,11,26,6.60
2014,01,18,11,27,6.60
2014,01,18,11,28,6.60
2014,01,18,11,29,6.60
2014,01,18,11,30,6.50
2014,01,18,11,31,6.50
2014,01,18,11,32,6.50
2014,01,18,11,33,6.60
2014,01,18,11,34,6.60
2014,01,18,11,35,6.70
2014,01,18,11,36,6.70
2014,01,18,11,37,6.70
2014,01,18,11,38,6.70
2014,01,18,11,39,6.80
2014,01,18,11,40,6.80
2014,01,18,11,41,6.80
2014,01,18,11,42,6.90
2014,01,18,11,43,6.90
2014,01,18,11,44,6.90
2014,01,18,11,45,7.00
2014,01,18,11,46,7.00
2014,01,18,11,47,7.10
2014,01,18,11,48,7.20
2014,01,18,11,49,7.20
2014,01,18,11,50,7.20
2014,01,18,11,51,7.20
2014,01,18,11,52,7.20
2014,01,18,11,53,7.20
2014,01,18,11,54,7.30
2014,01,18,11,55,7.30
2014,01,18,11,56,7.20
2014,01,18,11,57,7.20
2014,01,18,11,58,7.20
2014,01,18,11,59,7.20
2014,01,18,12,00,7.20
2014,01,18,12,01,7.20
2014,01,18,12,02,7.20
2014,01,18,12,03,7.30
2014,01,18,12,04,7.30
2014,01,18,12,05,7.40
2014,01,18,12,06,7.40
2014,01,18,12,07,7.50
2014,01,18,12,08,7.50
2014,01,18,12,09,7.60
2014,01,18,12,10,7.60
2014,01,18,12,11,7.60
2014,01,18,12,12,7.70
2014,01,18,12,13,7.70
2014,01,18,12,14,7.70
2014,01,18,12,15,7.70
2014,01,18,12,16,7.80
2014,01,18,12,17,7.80
2014,01,18,12,18,7.90
2014,01,18,12,19,7.90
2014,01,18,12,20,7.90
2014,01,18,12,21,8.00
2014,01,18,12,22,8.00
2014,01,18,12,23,8.00
2014,01,18,12,24,8.10
2014,01,18,12,25,8.10
2014,01,18,12,26,8.20
2014,01,18,12,27,8.20
2014,01,18,12,28,8.30
2014,01,18,12,29,8.30
2014,01,18,12,30,8.30
2014,01,18,12,31,8.30
2014,01,18,12,32,8.30
2014,01,18,12,33,8.30
2014,01,18,12,34,8.30
2014,01,18,12,35,8.40
2014,01,18,12,36,8.40
2014,01,18,12,37,8.30
2014,01,18,12,38,8.30
2014,01,18,12,39,8.30
2014,01,18,12,40,8.30
2014,01,18,12,41,8.30
2014,01,18,12,42,8.30
2014,01,18,12,43,8.20
2014,01,18,12,44,8.20
2014,01,18,12,45,8.20
2014,01,18,12,46,8.30
2014,01,18,12,47,8.30
2014,01,18,12,48,8.30
2014,01,18,12,49,8.40
2014,01,18,12,50,8.40
2014,01,18,12,51,8.50
2014,01,18,12,52,8.60
2014,01,18,12,53,8.60
2014,01,18,12,54,8.70
2014,01,18,12,55,8.70
2014,01,18,12,56,8.70
2014,01,18,12,57,8.80
2014,01,18,12,58,8.80
2014,01,18,12,59,8.80
2014,01,18,13,00,8.80
2014,01,18,13,01,8.80
2014,01,18,13,02,8.80
2014,01,18,13,03,8.80
2014,01,18,13,04,8.70
2014,01,18,13,05,8.60
2014,01,18,13,06,8.60
2014,01,18,13,07,8.60
2014,01,18,13,08,8.60
2014,01,18,13,09,8.60
2014,01,18,13,10,8.70
2014,01,18,13,11,8.70
2014,01,18,13,12,8.70
2014,01,18,13,13,8.70
2014,01,18,13,14,8.80
2014,01,18,13,15,8.80
2014,01,18,13,16,8.80
2014,01,18,13,17,8.80
2014,01,18,13,18,8.80
2014,01,18,13,19,8.80
2014,01,18,13,20,8.70
2014,01,18,13,21,8.70
2014,01,18,13,22,8.70
2014,01,18,13,23,8.70
2014,01,18,13,24,8.70
2014,01,18,13,25,8.70
2014,01,18,13,26,8.70
2014,01,18,13,27,8.70
2014,01,18,13,28,8.80
2014,01,18,13,29,8.80
2014,01,18,13,30,8.80
2014,01,18,13,31,8.80
2014,01,18,13,32,8.80
2014,01,18,13,33,8.80
2014,01,18,13,34,8.80
2014,01,18,13,35,8.70
2014,01,18,13,36,8.70
2014,01,18,13,37,8.80
2014,01,18,13,38,8.80
2014,01,18,13,39,8.80
2014,01,18,13,40,8.80
2014,01,18,13,41,8.80
2014,01,18,13,42,8.80
2014,01,18,13,43,8.80
2014,01,18,13,44,8.80
2014,01,18,13,45,8.80
2014,01,18,13,46,8.80
2014,01,18,13,47,8.80
2014,01,18,13,48,8.70
2014,01,18,13,49,8.80
2014,01,18,13,50,8.80
2014,01,18,13,51,8.80
2014,01,18,13,52,8.80
2014,01,18,13,53,8.80
2014,01,18,13,54,8.80
2014,01,18,13,55,8.80
2014,01,18,13,56,8.80
2014,01,18,13,57,8.90
2014,01,18,13,58,8.90
2014,01,18,13,59,8.90
2014,01,18,14,00,9.00
2014,01,18,14,01,9.00
2014,01,18,14,02,9.00
2014,01,18,14,03,9.00
2014,01,18,14,04,9.00
2014,01,18,14,05,9.00
2014,01,18,14,06,9.00
2014,01,18,14,07,9.00
2014,01,18,14,08,9.00
2014,01,18,14,09,9.00
2014,01,18,14,10,9.00
2014,01,18,14,11,9.00
2014,01,18,14,12,8.90
2014,01,18,14,13,8.90
2014,01,18,14,14,8.90
2014,01,18,14,15,8.80
2014,01,18,14,16,8.80
2014,01,18,14,17,8.70
2014,01,18,14,18,8.70
2014,01,18,14,19,8.70
2014,01,18,14,20,8.70
2014,01,18,14,21,8.60
2014,01,18,14,22,8.60
2014,01,18,14,23,8.60
2014,01,18,14,24,8.60
2014,01,18,14,25,8.60
2014,01,18,14,26,8.60
2014,01,18,14,27,8.60
2014,01,18,14,28,8.60
2014,01,18,14,29,8.70
2014,01,18,14,30,8.70
2014,01,18,14,31,8.70
2014,01,18,14,32,8.70
2014,01,18,14,33,8.80
2014,01,18,14,34,8.80
2014,01,18,14,35,8.80
2014,01,18,14,36,8.90
2014,01,18,14,37,8.90
2014,01,18,14,38,8.90
2014,01,18,14,39,8.90
2014,01,18,14,40,8.90
2014,01,18,14,41,8.90
2014,01,18,14,42,8.90
2014,01,18,14,43,8.90
2014,01,18,14,44,8.80
2014,01,18,14,45,8.80
2014,01,18,14,46,8.80
2014,01,18,14,47,8.80
2014,01,18,14,48,8.80
2014,01,18,14,49,8.80
2014,01,18,14,50,8.80
2014,01,18,14,51,8.80
2014,01,18,14,52,8.80
2014,01,18,14,53,8.70
2014,01,18,14,54,8.70
2014,01,18,14,55,8.70
2014,01,18,14,56,8.60
2014,01,18,14,57,8.60
2014,01,18,14,58,8.60
2014,01,18,14,59,8.50
2014,01,18,15,00,8.50
2014,01,18,15,01,8.40
2014,01,18,15,02,8.40
2014,01,18,15,03,8.40
2014,01,18,15,04,8.40
2014,01,18,15,05,8.40
2014,01,18,15,06,8.40
2014,01,18,15,07,8.30
2014,01,18,15,08,8.30
2014,01,18,15,09,8.30
2014,01,18,15,10,8.30
2014,01,18,15,11,8.30
2014,01,18,15,12,8.20
2014,01,18,15,13,8.20
2014,01,18,15,14,8.20
2014,01,18,15,15,8.20
2014,01,18,15,16,8.20
2014,01,18,15,17,8.20
2014,01,18,15,18,8.20
2014,01,18,15,19,8.20
2014,01,18,15,20,8.20
2014,01,18,15,21,8.20
2014,01,18,15,22,8.10
2014,01,18,15,23,8.10
2014,01,18,15,24,8.10
2014,01,18,15,25,8.10
2014,01,18,15,26,8.10
2014,01,18,15,27,8.10
2014,01,18,15,28,8.10
2014,01,18,15,29,8.10
2014,01,18,15,30,8.10
2014,01,18,15,31,8.10
2014,01,18,15,32,8.10
2014,01,18,15,33,8.10
2014,01,18,15,34,8.00
2014,01,18,15,35,8.00
2014,01,18,15,36,8.00
2014,01,18,15,37,8.00
2014,01,18,15,38,8.00
2014,01,18,15,39,8.00
2014,01,18,15,40,8.00
2014,01,18,15,41,8.00
2014,01,18,15,42,8.00
2014,01,18,15,43,8.00
2014,01,18,15,44,8.00
2014,01,18,15,45,8.00
2014,01,18,15,46,8.00
2014,01,18,15,47,8.00
2014,01,18,15,48,8.00
2014,01,18,15,49,8.00
2014,01,18,15,50,8.00
2014,01,18,15,51,8.00
2014,01,18,15,52,8.00
2014,01,18,15,53,8.00
2014,01,18,15,54,7.90
2014,01,18,15,55,7.90
2014,01,18,15,56,7.90
2014,01,18,15,57,7.90
2014,01,18,15,58,7.90
2014,01,18,15,59,7.90
2014,01,18,16,00,7.90
2014,01,18,16,01,7.90
2014,01,18,16,02,7.90
2014,01,18,16,03,7.90
2014,01,18,16,04,7.90
2014,01,18,16,05,7.90
2014,01,18,16,06,7.90
2014,01,18,16,07,7.90
2014,01,18,16,08,7.90
2014,01,18,16,09,7.90
2014,01,18,16,10,7.90
2014,01,18,16,11,7.90
2014,01,18,16,12,7.90
2014,01,18,16,13,7.90
2014,01,18,16,14,7.80
2014,01,18,16,15,7.80
2014,01,18,16,16,7.80
2014,01,18,16,17,7.80
2014,01,18,16,18,7.80
2014,01,18,16,19,7.80
2014,01,18,16,20,7.80
2014,01,18,16,21,7.70
2014,01,18,16,22,7.70
2014,01,18,16,23,7.70
2014,01,18,16,24,7.70
2014,01,18,16,25,7.70
2014,01,18,16,26,7.60
2014,01,18,16,27,7.60
2014,01,18,16,28,7.60
2014,01,18,16,29,7.60
2014,01,18,16,30,7.50
2014,01,18,16,31,7.50
2014,01,18,16,32,7.50
2014,01,18,16,33,7.50
2014,01,18,16,34,7.40
2014,01,18,16,35,7.40
2014,01,18,16,36,7.40
2014,01,18,16,37,7.40
2014,01,18,16,38,7.40
2014,01,18,16,39,7.30
2014,01,18,16,40,7.30
2014,01,18,16,41,7.30
2014,01,18,16,42,7.30
2014,01,18,16,43,7.20
2014,01,18,16,44,7.20
2014,01,18,16,45,7.20
2014,01,18,16,46,7.20
2014,01,18,16,47,7.20
2014,01,18,16,48,7.20
2014,01,18,16,49,7.20
2014,01,18,16,50,7.20
2014,01,18,16,51,7.10
2014,01,18,16,52,7.10
2014,01,18,16,53,7.10
2014,01,18,16,54,7.10
2014,01,18,16,55,7.10
2014,01,18,16,56,7.00
2014,01,18,16,57,7.00
2014,01,18,16,58,7.00
2014,01,18,16,59,7.00
2014,01,18,17,00,6.90
2014,01,18,17,01,6.90
2014,01,18,17,02,6.90
2014,01,18,17,03,6.90
2014,01,18,17,04,6.90
2014,01,18,17,05,6.90
2014,01,18,17,06,6.90
2014,01,18,17,07,6.90
2014,01,18,17,08,6.90
2014,01,18,17,09,6.90
2014,01,18,17,10,6.80
2014,01,18,17,11,6.80
2014,01,18,17,12,6.90
2014,01,18,17,13,6.90
2014,01,18,17,14,6.90
2014,01,18,17,15,6.90
2014,01,18,17,16,6.80
2014,01,18,17,17,6.80
2014,01,18,17,18,6.80
2014,01,18,17,19,6.80
2014,01,18,17,20,6.70
2014,01,18,17,21,6.70
2014,01,18,17,22,6.70
2014,01,18,17,23,6.70
2014,01,18,17,24,6.70
2014,01,18,17,25,6.60
2014,01,18,17,26,6.60
2014,01,18,17,27,6.60
2014,01,18,17,28,6.50
2014,01,18,17,29,6.40
2014,01,18,17,30,6.40
2014,01,18,17,31,6.40
2014,01,18,17,32,6.30
2014,01,18,17,33,6.30
2014,01,18,17,34,6.20
2014,01,18,17,35,6.20
2014,01,18,17,36,6.20
2014,01,18,17,37,6.10
2014,01,18,17,38,6.10
2014,01,18,17,39,6.10
2014,01,18,17,40,6.10
2014,01,18,17,41,6.00
2014,01,18,17,42,6.00
2014,01,18,17,43,6.00
2014,01,18,17,44,5.90
2014,01,18,17,45,5.90
2014,01,18,17,46,5.90
2014,01,18,17,47,5.90
2014,01,18,17,48,5.80
2014,01,18,17,49,5.80
2014,01,18,17,50,5.70
2014,01,18,17,51,5.60
2014,01,18,17,52,5.60
2014,01,18,17,53,5.50
2014,01,18,17,54,5.50
2014,01,18,17,55,5.40
2014,01,18,17,56,5.30
2014,01,18,17,57,5.30
2014,01,18,17,58,5.30
2014,01,18,17,59,5.30
2014,01,18,18,00,5.20
2014,01,18,18,01,5.20
2014,01,18,18,02,5.20
2014,01,18,18,03,5.10
2014,01,18,18,04,5.10
2014,01,18,18,05,5.10
2014,01,18,18,06,5.10
2014,01,18,18,07,5.00
2014,01,18,18,08,5.00
2014,01,18,18,09,4.90
2014,01,18,18,10,4.90
2014,01,18,18,11,4.90
2014,01,18,18,12,4.80
2014,01,18,18,13,4.80
2014,01,18,18,14,4.80
2014,01,18,18,15,4.80
2014,01,18,18,16,4.80
2014,01,18,18,17,4.70
2014,01,18,18,18,4.70
2014,01,18,18,19,4.70
2014,01,18,18,20,4.70
2014,01,18,18,21,4.70
2014,01,18,18,22,4.60
2014,01,18,18,23,4.60
2014,01,18,18,24,4.60
2014,01,18,18,25,4.60
2014,01,18,18,26,4.60
2014,01,18,18,27,4.60
2014,01,18,18,28,4.60
2014,01,18,18,29,4.50
2014,01,18,18,30,4.50
2014,01,18,18,31,4.50
2014,01,18,18,32,4.50
2014,01,18,18,33,4.50
2014,01,18,18,34,4.40
2014,01,18,18,35,4.40
2014,01,18,18,36,4.40
2014,01,18,18,37,4.40
2014,01,18,18,38,4.40
2014,01,18,18,39,4.40
2014,01,18,18,40,4.40
2014,01,18,18,41,4.40
2014,01,18,18,42,4.30
2014,01,18,18,43,4.30
2014,01,18,18,44,4.30
2014,01,18,18,45,4.30
2014,01,18,18,46,4.30
2014,01,18,18,47,4.30
2014,01,18,18,48,4.30
2014,01,18,18,49,4.30
2014,01,18,18,50,4.30
2014,01,18,18,51,4.30
2014,01,18,18,52,4.30
2014,01,18,18,53,4.30
2014,01,18,18,54,4.20
2014,01,18,18,55,4.20
2014,01,18,18,56,4.20
2014,01,18,18,57,4.20
2014,01,18,18,58,4.20
2014,01,18,18,59,4.20
2014,01,18,19,00,4.20
2014,01,18,19,01,4.20
2014,01,18,19,02,4.20
2014,01,18,19,03,4.20
2014,01,18,19,04,4.20
2014,01,18,19,05,4.10
2014,01,18,19,06,4.10
2014,01,18,19,07,4.10
2014,01,18,19,08,4.10
2014,01,18,19,09,4.10
2014,01,18,19,10,4.10
2014,01,18,19,11,4.10
2014,01,18,19,12,4.10
2014,01,18,19,13,4.10
2014,01,18,19,14,4.10
2014,01,18,19,15,4.10
2014,01,18,19,16,4.10
2014,01,18,19,17,4.10
2014,01,18,19,18,4.10
2014,01,18,19,19,4.10
2014,01,18,19,20,4.10
2014,01,18,19,21,4.10
2014,01,18,19,22,4.10
2014,01,18,19,23,4.10
2014,01,18,19,24,4.10
2014,01,18,19,25,4.10
2014,01,18,19,26,4.10
2014,01,18,19,27,4.10
2014,01,18,19,28,4.10
2014,01,18,19,29,4.10
2014,01,18,19,30,4.10
2014,01,18,19,31,4.10
2014,01,18,19,32,4.10
2014,01,18,19,33,4.10
2014,01,18,19,34,4.10
2014,01,18,19,35,4.10
2014,01,18,19,36,4.10
2014,01,18,19,37,4.10
2014,01,18,19,38,4.10
2014,01,18,19,39,4.10
2014,01,18,19,40,4.10
2014,01,18,19,41,4.10
2014,01,18,19,42,4.10
2014,01,18,19,43,4.10
2014,01,18,19,44,4.10
2014,01,18,19,45,4.10
2014,01,18,19,46,4.10
2014,01,18,19,47,4.10
2014,01,18,19,48,4.10
2014,01,18,19,49,4.10
2014,01,18,19,50,4.10
2014,01,18,19,51,4.10
2014,01,18,19,52,4.10
2014,01,18,19,53,4.10
2014,01,18,19,54,4.10
2014,01,18,19,55,4.10
2014,01,18,19,56,4.10
2014,01,18,19,57,4.10
2014,01,18,19,58,4.10
2014,01,18,19,59,4.10
2014,01,18,20,00,4.10
2014,01,18,20,01,4.10
2014,01,18,20,02,4.10
2014,01,18,20,03,4.10
2014,01,18,20,04,4.10
2014,01,18,20,05,4.10
2014,01,18,20,06,4.10
2014,01,18,20,07,4.10
2014,01,18,20,08,4.10
2014,01,18,20,09,4.10
2014,01,18,20,10,4.10
2014,01,18,20,11,4.10
2014,01,18,20,12,4.10
2014,01,18,20,13,4.10
2014,01,18,20,14,4.10
2014,01,18,20,15,4.10
2014,01,18,20,16,4.10
2014,01,18,20,17,4.10
2014,01,18,20,18,4.10
2014,01,18,20,19,4.10
2014,01,18,20,20,4.10
2014,01,18,20,21,4.10
2014,01,18,20,22,4.10
2014,01,18,20,23,4.10
2014,01,18,20,24,4.10
2014,01,18,20,25,4.10
2014,01,18,20,26,4.10
2014,01,18,20,27,4.10
2014,01,18,20,28,4.10
2014,01,18,20,29,4.10
2014,01,18,20,30,4.10
2014,01,18,20,31,4.10
2014,01,18,20,32,4.10
2014,01,18,20,33,4.10
2014,01,18,20,34,4.10
2014,01,18,20,35,4.10
2014,01,18,20,36,4.10
2014,01,18,20,37,4.10